STARLINK-32679 (62507 NORAD) Tracking and Keplerian Element Data

This shows tracking and keplerian element data for the satellite.

Feedback or suggestion? Click here.




ElementValue
Catalog62507
NameSTARLINK-32679
Epoch Orbit571
Epoch Day35.33098359
Epoch Year2025
RAAN21.609
Inclination42.9966
Eccentricity6.25E-05
Argument of Perigee180.955
Mean Anonmoly179.1309
Mean Motion15.50612125
Decay Rate0.00013359
L11 62507U 25003W 25035.33098359 .00013359 00000+0 23286-3 0 9999
L22 62507 42.9966 21.6090 0000625 180.9550 179.1309 15.50612125 5718



Live tracking and technical data element details for STARLINK-32679 (NORAD 62507). STARLINK-32679 can be tracked NOW for your location showing map with azimuth and elevation plus other details from your city location.







IsCatalogInMostPopularTable: catalog: 62507, numindb: 12
Update: records affected: 1



GetName: 62507 STARLINK-32679

Hit Count: updated at: Sun, 18 May 2025 23:19:08 GMT